Hourly Weather Roundup
Issued by NWS Central Illinois

Home | Current Version | Previous Version | Text Only | Print | Product List | Glossary On
Versions: 1 2 3 4 5 6 7 8 9 10 11 12 13 14 15 16 17 18 19 20 21 22 23 24 25 26 27 28 29 30 31 32 33 34 35 36 37 38 39 40 41 42 43 44 45 46 47 48 49 50
000
NZUS43 KILX 241710
HWRILX

AREA WEATHER ROUNDUP
NATIONAL WEATHER SERVICE, LINCOLN IL
1200 PM CDT FRI OCT 24 2014


CITY           SKY/WX    TMP DP  RH WIND       PRES   REMARKS
BLOOMINGTON    MOSUNNY   64  54  70 SW8       30.09S
CHAMPAIGN      PTSUNNY   63  53  70 VRB3      30.09F
DECATUR        MOSUNNY   64  55  72 SW3       30.09F
FLORA          SUNNY     65  53  64 CALM      30.11F
GALESBURG      CLOUDY    55  54  99 S8        30.08F FOG
JACKSONVILLE   CLOUDY    64  56  76 W9        30.10F
LACON          PTSUNNY   59  52  78 NW3       30.07S HAZE
LAWRENCEVILLE  SUNNY     64  50  60 VRB3      30.11F
LITCHFIELD     CLOUDY    58  54  86 W6        30.12S
$$


CITY           SKY/WX    TMP DP  RH WIND       PRES   REMARKS
LINCOLN        PTSUNNY   63  55  76 CALM      30.07S
MACOMB         FOG       55  55 100 S9        30.10F VSB 1
MATTOON        MOSUNNY   65  53  65 CALM      30.08F
MT CARMEL AP   SUNNY     66  50  55 SW3       30.11S
OLNEY-NOBLE AP SUNNY     64  52  63 CALM      30.11S
PARIS          CLOUDY    63  52  66 CALM      30.09F
PEORIA         PTSUNNY   61  53  75 SW7       30.08F HAZE
PONTIAC        SUNNY     63  52  67 CALM      30.08S
RANTOUL        PTSUNNY   65  53  65 SW6       30.08F
ROBINSON       PTSUNNY   67  51  56 S3        30.11F
SPRINGFIELD    CLOUDY    57  55  93 W7        30.10F FOG
TAYLORVILLE    CLOUDY    55  54  94 W3        30.10F FOG
$$

...REGIONAL REPORTS...


CITY           SKY/WX    TMP DP  RH WIND       PRES   REMARKS
CHICAGO O`HARE PTSUNNY   60  48  64 S5        30.04F
KANKAKEE       SUNNY     63  53  68 SW5       30.07F
MOLINE         PTSUNNY   59  53  80 S6        30.05F
MOUNT VERNON   PTSUNNY   66  55  68 SW3       30.13S
PITTSFIELD     PTSUNNY   62  57  84 SW3       30.10F
QUINCY         FOG       57  56  96 S8        30.09F VSB 1/4
ROCKFORD       CLOUDY    52  50  93 SW8       30.08S FOG
$$


CITY           SKY/WX    TMP DP  RH WIND       PRES   REMARKS
BURLINGTON     CLOUDY    56  56 100 S9        30.07S
CEDAR RAPIDS   FOG       53  53 100 S14       30.01F VSB 1/16
DES MOINES     CLOUDY    63  60  90 S12       29.95F FOG
KIRKSVILLE     CLOUDY    60  60 100 S10       30.06F FOG
OTTUMWA        CLOUDY    59  57  93 S12G18    30.00F
ST LOUIS       PTSUNNY   68  56  65 W6        30.12F
$$


CITY           SKY/WX    TMP DP  RH WIND       PRES   REMARKS
TERRE HAUTE    MOSUNNY   63  49  60 VRB5      30.09F
EVANSVILLE     SUNNY     62  46  55 S6        30.12F
INDIANAPOLIS   CLOUDY    55  47  74 S3        30.10S
LAFAYETTE      SUNNY     61  50  67 SW9       30.07F
MADISON        CLOUDY    52  50  93 S7        30.03F FOG
MILWAUKEE      CLOUDY    53  49  86 SW8       30.03F
$$





USA.gov is the U.S. government's official web portal to all federal, state and local government web resources and services.